SIA313 EGKK-WSSS

Flight info

Callsign SIA313
Flight time N/A
Altitude 33000
Route MIMFO Y312 DVR L9 KONAN UL607 KOK DCT REMBA DCT MATUG DCT AMASI DCT BOMBI DCT TENLO DCT DEXIT DCT PESAT DCT TEGRI DCT LUGEB/N0488F350 DCT UDROS DCT CRM UM11 TBN UR317 REBLO M11 LUSAL N199 BAKUV N701 LARGI B701 KRS A240 KESEK/N0487F370 A240 INRAK B449 DOLOS B475 RUBAD A846 RANAH L750 ZB G201 BINDO L750 MERUN L333 KKJ L759 OTABA/N0491F390 L759 PUT W14 HTY A334 PASVA Y514 NUFFA DCT PIBAP DCT PASPU DCT NYLON DCT POSUB DCT SANAT
Aircraft A359/H-SDE2E3GHIJ3J4J5LM1ORWXY/LB1D1

Departure

Time 2026-05-05 09:24
Airport London Gatwick Airport (EGKK)

Arrival

Time N/A
Airport Singapore Changi Airport (WSSS)
Time Latitude Longitude Altitude Speed Heading
2026-05-05 08:55 51.15817 -0.17952 211 ft 0 kts 78°
2026-05-05 09:10 51.15815 -0.17970 216 ft 4 kts 77°
2026-05-05 09:10 51.15809 -0.18012 216 ft 4 kts 79°
2026-05-05 09:11 51.15806 -0.18048 222 ft 2 kts 107°
2026-05-05 09:11 51.15812 -0.18063 224 ft 2 kts 168°
2026-05-05 09:11 51.15819 -0.18066 222 ft 0 kts 162°
2026-05-05 09:15 51.15806 -0.18063 222 ft 6 kts 170°
2026-05-05 09:15 51.15736 -0.18041 222 ft 11 kts 171°
2026-05-05 09:16 51.15688 -0.18081 218 ft 5 kts 250°
2026-05-05 09:16 51.15675 -0.18147 219 ft 8 kts 255°
2026-05-05 09:16 51.15657 -0.18271 218 ft 13 kts 258°
2026-05-05 09:16 51.15638 -0.18413 212 ft 14 kts 258°
2026-05-05 09:17 51.15616 -0.18568 218 ft 15 kts 256°
2026-05-05 09:17 51.15594 -0.18732 216 ft 16 kts 258°
2026-05-05 09:17 51.15534 -0.18814 218 ft 11 kts 172°
2026-05-05 09:17 51.15454 -0.18791 219 ft 13 kts 169°
2026-05-05 09:18 51.15363 -0.18758 221 ft 14 kts 166°
2026-05-05 09:18 51.15265 -0.18723 222 ft 15 kts 167°
2026-05-05 09:18 51.15158 -0.18702 216 ft 15 kts 197°
2026-05-05 09:18 51.15115 -0.18840 219 ft 15 kts 256°
2026-05-05 09:19 51.15092 -0.19001 217 ft 15 kts 259°
2026-05-05 09:19 51.15068 -0.19169 216 ft 16 kts 258°
2026-05-05 09:19 51.15046 -0.19346 219 ft 17 kts 258°
2026-05-05 09:19 51.15020 -0.19530 216 ft 17 kts 258°
2026-05-05 09:20 51.14993 -0.19721 218 ft 18 kts 257°
2026-05-05 09:20 51.14966 -0.19921 212 ft 19 kts 257°
2026-05-05 09:20 51.14937 -0.20134 215 ft 20 kts 258°
2026-05-05 09:20 51.14906 -0.20355 220 ft 21 kts 257°
2026-05-05 09:21 51.14875 -0.20581 220 ft 21 kts 258°
2026-05-05 09:21 51.14844 -0.20808 216 ft 21 kts 257°
2026-05-05 09:21 51.14813 -0.21035 216 ft 21 kts 258°
2026-05-05 09:21 51.14773 -0.21260 208 ft 21 kts 257°
2026-05-05 09:22 51.14733 -0.21388 216 ft 9 kts 200°
2026-05-05 09:22 51.14678 -0.21368 213 ft 9 kts 153°
2026-05-05 09:22 51.14618 -0.21328 219 ft 10 kts 161°
2026-05-05 09:22 51.14562 -0.21286 218 ft 8 kts 142°
2026-05-05 09:23 51.14522 -0.21216 221 ft 9 kts 122°
2026-05-05 09:23 51.14520 -0.21128 215 ft 8 kts 79°
2026-05-05 09:23 51.14530 -0.21062 223 ft 0 kts 77°
2026-05-05 09:23 51.14534 -0.21032 215 ft 11 kts 77°
2026-05-05 09:24 51.14597 -0.20580 217 ft 76 kts 78°
2026-05-05 09:24 51.14757 -0.19421 220 ft 139 kts 77°
2026-05-05 09:24 51.15023 -0.17609 365 ft 179 kts 72°
2026-05-05 09:24 51.15240 -0.15733 1343 ft 167 kts 79°
2026-05-05 09:25 51.15282 -0.14528 2001 ft 161 kts 85°
2026-05-05 09:25 51.15332 -0.12634 2498 ft 183 kts 79°
2026-05-05 09:25 51.15634 -0.10032 3139 ft 195 kts 72°
2026-05-05 09:25 51.16032 -0.08007 3608 ft 192 kts 67°
2026-05-05 09:26 51.16378 -0.06686 3874 ft 193 kts 63°
2026-05-05 09:26 51.16911 -0.04699 4200 ft 197 kts 69°
2026-05-05 09:26 51.17280 -0.02577 4508 ft 203 kts 78°
2026-05-05 09:26 51.17313 0.00476 4905 ft 215 kts 96°
2026-05-05 09:27 51.17091 0.02860 5247 ft 221 kts 98°
2026-05-05 09:27 51.16905 0.04511 5507 ft 226 kts 99°
2026-05-05 09:27 51.16721 0.07058 5787 ft 238 kts 92°
2026-05-05 09:27 51.16657 0.09736 6039 ft 251 kts 90°
2026-05-05 09:28 51.16606 0.12584 6343 ft 262 kts 90°
2026-05-05 09:28 51.16553 0.15313 6779 ft 267 kts 90°
2026-05-05 09:28 51.16528 0.18252 7272 ft 271 kts 89°
2026-05-05 09:28 51.16546 0.21271 7780 ft 274 kts 88°
2026-05-05 09:29 51.16562 0.24323 8336 ft 277 kts 89°
2026-05-05 09:29 51.16574 0.27419 8911 ft 280 kts 89°
2026-05-05 09:29 51.16582 0.30529 9480 ft 282 kts 89°
2026-05-05 09:29 51.16588 0.33672 10025 ft 285 kts 89°
2026-05-05 09:30 51.16597 0.36838 10540 ft 287 kts 89°
2026-05-05 09:30 51.16598 0.40029 11085 ft 289 kts 89°
2026-05-05 09:30 51.16598 0.43244 11600 ft 291 kts 89°
2026-05-05 09:30 51.16598 0.46490 12122 ft 293 kts 89°
2026-05-05 09:31 51.16597 0.49705 12639 ft 296 kts 89°
2026-05-05 09:31 51.16596 0.53081 12919 ft 308 kts 89°
2026-05-05 09:31 51.16595 0.56565 13168 ft 319 kts 89°
2026-05-05 09:31 51.16593 0.60165 13422 ft 330 kts 89°
2026-05-05 09:32 51.16589 0.63831 13689 ft 340 kts 89°
2026-05-05 09:32 51.16584 0.67697 13942 ft 351 kts 89°
2026-05-05 09:32 51.16576 0.71648 14170 ft 361 kts 90°
2026-05-05 09:32 51.16567 0.75632 14395 ft 370 kts 90°
2026-05-05 09:33 51.16556 0.79797 14623 ft 380 kts 90°
2026-05-05 09:33 51.16543 0.84053 14839 ft 389 kts 90°
2026-05-05 09:33 51.16528 0.88404 15077 ft 397 kts 90°
2026-05-05 09:33 51.16512 0.92839 15406 ft 402 kts 90°
2026-05-05 09:34 51.16494 0.97299 15826 ft 404 kts 90°
2026-05-05 09:34 51.16474 1.01792 16244 ft 407 kts 90°
2026-05-05 09:34 51.16452 1.06334 16640 ft 411 kts 91°
2026-05-05 09:34 51.16428 1.10899 17090 ft 413 kts 91°
2026-05-05 09:35 51.16402 1.15509 17489 ft 417 kts 91°
2026-05-05 09:35 51.16345 1.24800 18332 ft 422 kts 91°
2026-05-05 09:35 51.16313 1.29491 18693 ft 425 kts 92°
2026-05-05 09:36 51.16279 1.34211 19094 ft 427 kts 92°
2026-05-05 09:36 51.16230 1.38958 19498 ft 429 kts 93°
2026-05-05 09:36 51.16064 1.43711 19876 ft 432 kts 95°
2026-05-05 09:36 51.15812 1.48476 20324 ft 433 kts 96°
2026-05-05 09:37 51.15531 1.53274 20714 ft 436 kts 96°
2026-05-05 09:37 51.15250 1.58099 21112 ft 439 kts 97°
2026-05-05 09:37 51.14985 1.62881 21566 ft 440 kts 97°
2026-05-05 09:37 51.14727 1.67748 21948 ft 443 kts 96°
2026-05-05 09:38 51.14477 1.72666 22336 ft 446 kts 97°
2026-05-05 09:38 51.14229 1.77585 22760 ft 448 kts 97°
2026-05-05 09:38 51.13977 1.82561 23085 ft 452 kts 97°
2026-05-05 09:38 51.13723 1.87563 23519 ft 453 kts 97°
2026-05-05 09:39 51.13464 1.92592 23811 ft 457 kts 96°
2026-05-05 09:39 51.13201 1.97657 24106 ft 460 kts 97°
2026-05-05 09:39 51.12938 2.02747 24434 ft 462 kts 97°
2026-05-05 09:39 51.12672 2.07854 24728 ft 465 kts 97°
2026-05-05 09:40 51.12397 2.13004 25039 ft 468 kts 97°
2026-05-05 09:40 51.12115 2.18196 25353 ft 470 kts 96°
2026-05-05 09:40 51.11831 2.23380 25654 ft 473 kts 97°
2026-05-05 09:40 51.11546 2.28549 25929 ft 475 kts 97°
2026-05-05 09:41 51.11255 2.33802 26248 ft 478 kts 97°
2026-05-05 09:41 51.10961 2.39091 26514 ft 481 kts 97°
2026-05-05 09:41 51.10662 2.44412 26701 ft 485 kts 97°
2026-05-05 09:41 51.10360 2.49771 27027 ft 487 kts 97°
2026-05-05 09:42 51.10053 2.55168 27310 ft 489 kts 97°
2026-05-05 09:42 51.09742 2.60554 27601 ft 491 kts 97°
2026-05-05 09:42 51.09212 2.65933 27859 ft 491 kts 105°
2026-05-05 09:42 51.08396 2.71151 28103 ft 493 kts 107°
2026-05-05 09:43 51.07492 2.76408 28381 ft 494 kts 108°
2026-05-05 09:43 51.06542 2.81679 28643 ft 496 kts 108°
2026-05-05 09:43 51.05571 2.86952 28900 ft 497 kts 108°
2026-05-05 09:43 51.04601 2.92196 29233 ft 497 kts 109°
2026-05-05 09:44 51.03619 2.97501 29574 ft 497 kts 109°
2026-05-05 09:44 51.02649 3.02752 29918 ft 496 kts 109°
2026-05-05 09:44 51.01680 3.08010 30194 ft 496 kts 109°
2026-05-05 09:44 51.00709 3.13269 30469 ft 495 kts 109°
2026-05-05 09:45 50.99738 3.18523 30747 ft 495 kts 109°
2026-05-05 09:45 50.98766 3.23768 31013 ft 494 kts 109°
2026-05-05 09:45 50.97796 3.28989 31261 ft 494 kts 109°
2026-05-05 09:45 50.96826 3.34195 31558 ft 491 kts 109°
2026-05-05 09:46 50.95856 3.39389 31860 ft 489 kts 109°
2026-05-05 09:46 50.94887 3.44558 32073 ft 489 kts 110°
2026-05-05 09:46 50.93911 3.49746 32272 ft 489 kts 110°
2026-05-05 09:46 50.92953 3.54824 32483 ft 489 kts 110°
2026-05-05 09:47 50.91978 3.59982 32689 ft 489 kts 110°
2026-05-05 09:47 50.90998 3.65151 32872 ft 489 kts 110°
2026-05-05 09:47 50.89018 3.75544 32910 ft 495 kts 110°
2026-05-05 09:48 50.87017 3.86000 32909 ft 495 kts 110°
2026-05-05 09:48 50.85017 3.96402 32910 ft 495 kts 110°
2026-05-05 09:49 50.83001 4.06821 32909 ft 495 kts 111°
2026-05-05 09:49 50.80977 4.17221 32908 ft 495 kts 111°
2026-05-05 09:50 50.78959 4.27542 32907 ft 493 kts 111°
2026-05-05 09:50 50.76926 4.37887 32909 ft 491 kts 111°
2026-05-05 09:51 50.74892 4.48167 32912 ft 491 kts 111°
2026-05-05 09:51 50.72846 4.58459 32909 ft 491 kts 111°
2026-05-05 09:52 50.70786 4.68766 32894 ft 491 kts 112°
2026-05-05 09:52 50.68726 4.79019 32896 ft 490 kts 112°
2026-05-05 09:53 50.66668 4.89211 32899 ft 490 kts 112°
2026-05-05 09:53 50.64736 4.99471 32898 ft 492 kts 109°
2026-05-05 09:54 50.63092 5.10041 32887 ft 493 kts 108°
2026-05-05 09:54 50.61456 5.20535 32887 ft 493 kts 109°
2026-05-05 09:55 50.59767 5.30932 32886 ft 492 kts 110°
2026-05-05 09:55 50.58038 5.41353 32875 ft 492 kts 110°
2026-05-05 09:56 50.56301 5.51729 32876 ft 492 kts 110°
2026-05-05 09:56 50.54555 5.62116 32865 ft 492 kts 110°
2026-05-05 09:57 50.52786 5.72575 32874 ft 495 kts 110°
2026-05-05 09:57 50.51011 5.83017 32868 ft 495 kts 110°
2026-05-05 09:58 50.49240 5.93378 32869 ft 494 kts 110°
2026-05-05 09:58 50.47468 6.03687 32857 ft 492 kts 110°
2026-05-05 09:59 50.45660 6.14115 32863 ft 498 kts 110°
2026-05-05 09:59 50.43832 6.24598 32862 ft 501 kts 110°
2026-05-05 10:00 50.41995 6.35109 32849 ft 500 kts 110°
2026-05-05 10:00 50.40294 6.45723 32832 ft 502 kts 107°
2026-05-05 10:01 50.38889 6.56454 32843 ft 505 kts 106°
2026-05-05 10:01 50.37458 6.67292 32852 ft 506 kts 107°
2026-05-05 10:02 50.35977 6.78027 32854 ft 506 kts 107°
2026-05-05 10:02 50.34458 6.88789 32860 ft 506 kts 107°
2026-05-05 10:03 50.32921 6.99565 32857 ft 507 kts 107°
2026-05-05 10:03 50.31376 7.10342 32859 ft 508 kts 107°
2026-05-05 10:04 50.29819 7.21136 32857 ft 508 kts 107°
2026-05-05 10:04 50.28253 7.31926 32859 ft 508 kts 107°
2026-05-05 10:05 50.26687 7.42633 32858 ft 509 kts 107°
2026-05-05 10:05 50.25096 7.53426 32866 ft 509 kts 107°
2026-05-05 10:06 50.23496 7.64230 32864 ft 509 kts 107°
2026-05-05 10:06 50.21894 7.75004 32864 ft 509 kts 108°
2026-05-05 10:07 50.20286 7.85711 32862 ft 509 kts 108°
2026-05-05 10:07 50.18665 7.96442 32866 ft 509 kts 108°
2026-05-05 10:08 50.17044 8.07103 32867 ft 509 kts 108°
2026-05-05 10:08 50.15402 8.17837 32868 ft 509 kts 108°
2026-05-05 10:09 50.13748 8.28575 32860 ft 509 kts 108°
2026-05-05 10:09 50.12085 8.39299 32868 ft 509 kts 108°
2026-05-05 10:10 50.10413 8.50021 32855 ft 508 kts 108°
2026-05-05 10:10 50.08745 8.60638 32857 ft 508 kts 108°
2026-05-05 10:11 50.07057 8.71311 32857 ft 508 kts 108°
2026-05-05 10:11 50.05213 8.81905 32861 ft 504 kts 113°
2026-05-05 10:12 50.02948 8.92234 32859 ft 504 kts 114°
2026-05-05 10:12 50.01024 9.00718 32860 ft 504 kts 114°
2026-05-05 10:13 49.98668 9.11034 32862 ft 504 kts 114°
2026-05-05 10:13 49.96341 9.21212 32856 ft 503 kts 114°
2026-05-05 10:14 49.93996 9.31438 32877 ft 503 kts 114°
2026-05-05 10:14 49.91633 9.41703 32875 ft 503 kts 114°
2026-05-05 10:15 49.89289 9.51834 32850 ft 503 kts 114°
2026-05-05 10:15 49.86914 9.62046 32860 ft 502 kts 114°
2026-05-05 10:16 49.84537 9.72219 32861 ft 501 kts 114°
2026-05-05 10:16 49.82153 9.82374 32854 ft 501 kts 114°
2026-05-05 10:17 49.79769 9.92485 32856 ft 501 kts 114°
2026-05-05 10:17 49.77359 10.02652 32849 ft 502 kts 114°
2026-05-05 10:18 49.74934 10.12832 32845 ft 505 kts 114°
2026-05-05 10:18 49.72502 10.23003 32845 ft 503 kts 114°
2026-05-05 10:19 49.70082 10.33079 32840 ft 503 kts 114°
2026-05-05 10:19 49.67638 10.43203 32828 ft 503 kts 114°
2026-05-05 10:20 49.65179 10.53337 32839 ft 504 kts 115°
2026-05-05 10:20 49.62711 10.63467 32840 ft 504 kts 115°
2026-05-05 10:21 49.60236 10.73578 32832 ft 504 kts 115°
2026-05-05 10:21 49.57762 10.83641 32816 ft 504 kts 115°
2026-05-05 10:22 49.55268 10.93737 32829 ft 504 kts 115°
2026-05-05 10:22 49.52773 11.03795 32829 ft 504 kts 115°
2026-05-05 10:23 49.50174 11.13793 32829 ft 503 kts 117°
2026-05-05 10:23 49.47427 11.23692 32829 ft 502 kts 117°
2026-05-05 10:24 49.44685 11.33566 32831 ft 502 kts 116°
2026-05-05 10:24 49.41960 11.43455 32834 ft 502 kts 116°
2026-05-05 10:25 49.39242 11.53314 32815 ft 502 kts 116°
2026-05-05 10:25 49.36503 11.63208 32829 ft 503 kts 116°
2026-05-05 10:26 49.33759 11.73076 32828 ft 504 kts 116°
2026-05-05 10:26 49.30999 11.82959 32821 ft 504 kts 116°
2026-05-05 10:27 49.28235 11.92818 32818 ft 504 kts 116°
2026-05-05 10:27 49.25455 12.02684 32814 ft 504 kts 117°
2026-05-05 10:28 49.22693 12.12449 32814 ft 503 kts 116°
2026-05-05 10:28 49.19901 12.22285 32818 ft 503 kts 116°
2026-05-05 10:29 49.17109 12.32076 32813 ft 503 kts 116°
2026-05-05 10:29 49.14298 12.41895 32812 ft 503 kts 117°
2026-05-05 10:30 49.11486 12.51673 32811 ft 502 kts 116°
2026-05-05 10:30 49.08690 12.61364 32811 ft 502 kts 116°
2026-05-05 10:31 49.05864 12.71112 32810 ft 501 kts 116°
2026-05-05 10:31 49.03039 12.80823 32809 ft 501 kts 117°
2026-05-05 10:32 49.00211 12.90502 32809 ft 502 kts 117°
2026-05-05 10:32 48.97357 13.00231 32809 ft 503 kts 117°
2026-05-05 10:33 48.94498 13.09941 32829 ft 503 kts 117°
2026-05-05 10:33 48.91626 13.19653 32808 ft 503 kts 117°
2026-05-05 10:34 48.88770 13.29275 32813 ft 502 kts 117°
2026-05-05 10:34 48.85899 13.38910 32811 ft 501 kts 117°
2026-05-05 10:35 48.83016 13.48547 32814 ft 501 kts 117°
2026-05-05 10:35 48.80123 13.58176 32829 ft 501 kts 117°
2026-05-05 10:36 48.77220 13.67800 32814 ft 501 kts 117°
2026-05-05 10:36 48.74344 13.77402 32814 ft 501 kts 116°
2026-05-05 10:37 48.71531 13.87010 32816 ft 501 kts 116°
2026-05-05 10:37 48.68702 13.96650 32811 ft 501 kts 116°
2026-05-05 10:38 48.65850 14.06292 32803 ft 501 kts 116°
2026-05-05 10:38 48.62984 14.15921 32811 ft 502 kts 116°
2026-05-05 10:39 48.60126 14.25485 32809 ft 501 kts 116°
2026-05-05 10:39 48.57254 14.35064 32810 ft 501 kts 116°
2026-05-05 10:40 48.54367 14.44653 32803 ft 501 kts 116°
2026-05-05 10:40 48.51465 14.54253 32810 ft 503 kts 116°
2026-05-05 10:41 48.48554 14.63849 32806 ft 503 kts 116°
2026-05-05 10:41 48.45654 14.73372 32807 ft 503 kts 116°
2026-05-05 10:42 48.41254 14.87739 32807 ft 503 kts 116°
2026-05-05 10:43 48.38305 14.97328 32808 ft 504 kts 116°
2026-05-05 10:43 48.35375 15.06824 32805 ft 504 kts 116°
2026-05-05 10:44 48.32418 15.16365 32806 ft 503 kts 116°
2026-05-05 10:44 48.29448 15.25908 32802 ft 503 kts 116°
2026-05-05 10:45 48.26490 15.35381 32809 ft 503 kts 116°
2026-05-05 10:45 48.23513 15.44880 32814 ft 503 kts 116°
2026-05-05 10:46 48.20524 15.54378 32813 ft 503 kts 117°
2026-05-05 10:46 48.17525 15.63876 32820 ft 504 kts 117°
2026-05-05 10:47 48.14513 15.73376 32818 ft 505 kts 117°
2026-05-05 10:47 48.11504 15.82827 32815 ft 504 kts 117°
2026-05-05 10:48 48.08475 15.92311 32812 ft 505 kts 117°
2026-05-05 10:48 48.05452 16.01740 32815 ft 505 kts 117°
2026-05-05 10:49 48.02405 16.11208 32824 ft 506 kts 117°
2026-05-05 10:49 47.99351 16.20663 32825 ft 505 kts 117°
2026-05-05 10:50 47.96290 16.30102 32824 ft 505 kts 117°
2026-05-05 10:50 47.93225 16.39520 32834 ft 506 kts 118°
2026-05-05 10:51 47.90133 16.48980 32843 ft 506 kts 118°
2026-05-05 10:51 47.87060 16.58356 32851 ft 507 kts 117°
2026-05-05 10:52 47.83957 16.67785 32855 ft 506 kts 117°
2026-05-05 10:52 47.80845 16.77203 32868 ft 509 kts 118°
2026-05-05 10:53 47.77727 16.86613 32868 ft 506 kts 118°
2026-05-05 10:53 47.74589 16.96040 32869 ft 508 kts 118°
2026-05-05 10:54 47.71459 17.05416 32865 ft 507 kts 118°
2026-05-05 10:54 47.68335 17.14792 32888 ft 505 kts 118°
2026-05-05 10:55 47.65227 17.24137 32892 ft 505 kts 118°
2026-05-05 10:55 47.62131 17.33405 32901 ft 504 kts 118°
2026-05-05 10:56 47.58997 17.42748 32912 ft 505 kts 118°
2026-05-05 10:56 47.55873 17.52021 32941 ft 502 kts 118°
2026-05-05 10:57 47.52737 17.61292 32924 ft 503 kts 118°
2026-05-05 10:57 47.49622 17.70468 32924 ft 502 kts 118°
2026-05-05 10:58 47.46475 17.79706 32946 ft 502 kts 118°
2026-05-05 10:58 47.43339 17.88888 32938 ft 500 kts 118°
2026-05-05 10:59 47.40725 17.96510 32941 ft 500 kts 118°
2026-05-05 10:59 47.37571 18.05678 32943 ft 500 kts 120°
2026-05-05 11:00 47.34408 18.14841 32940 ft 500 kts 119°
2026-05-05 11:00 47.31269 18.23908 32948 ft 500 kts 119°
2026-05-05 11:01 47.28100 18.33021 32948 ft 499 kts 120°
2026-05-05 11:01 47.24929 18.42112 32955 ft 499 kts 119°
2026-05-05 11:02 47.21752 18.51187 32960 ft 499 kts 118°
2026-05-05 11:02 47.18559 18.60281 32960 ft 500 kts 119°
2026-05-05 11:03 47.15369 18.69333 32966 ft 500 kts 119°
2026-05-05 11:03 47.12164 18.78393 32968 ft 500 kts 118°
2026-05-05 11:04 47.08942 18.87473 32967 ft 500 kts 119°
2026-05-05 11:04 47.05708 18.96551 32978 ft 502 kts 119°
2026-05-05 11:05 47.02498 19.05541 32979 ft 501 kts 119°
2026-05-05 11:05 46.99253 19.14594 32979 ft 501 kts 119°
2026-05-05 11:06 46.96004 19.23620 32982 ft 502 kts 118°
2026-05-05 11:06 46.92727 19.32696 32984 ft 503 kts 119°
2026-05-05 11:07 46.89450 19.41744 32987 ft 504 kts 119°
2026-05-05 11:07 46.86164 19.50789 32991 ft 503 kts 119°
2026-05-05 11:08 46.82885 19.59780 32988 ft 504 kts 119°
2026-05-05 11:08 46.79593 19.68780 32994 ft 504 kts 119°
2026-05-05 11:09 46.76272 19.77824 32994 ft 504 kts 119°
2026-05-05 11:09 46.72951 19.86841 32992 ft 504 kts 119°
2026-05-05 11:10 46.69630 19.95824 32995 ft 504 kts 119°
2026-05-05 11:10 46.66303 20.04795 32999 ft 504 kts 119°
2026-05-05 11:11 46.62963 20.13773 32998 ft 504 kts 119°
2026-05-05 11:11 46.59629 20.22704 32998 ft 504 kts 119°
2026-05-05 11:12 46.56279 20.31647 33000 ft 503 kts 119°
2026-05-05 11:12 46.52921 20.40585 33002 ft 504 kts 119°
2026-05-05 11:13 46.49554 20.49513 32999 ft 503 kts 119°
2026-05-05 11:13 46.46187 20.58414 33005 ft 504 kts 119°
2026-05-05 11:14 46.42802 20.67331 33006 ft 504 kts 119°
2026-05-05 11:14 46.39426 20.76195 33004 ft 505 kts 119°
2026-05-05 11:15 46.36033 20.85079 33008 ft 504 kts 119°
2026-05-05 11:15 46.32630 20.93958 33011 ft 505 kts 118°
2026-05-05 11:16 46.29218 21.02831 33017 ft 504 kts 118°
2026-05-05 11:16 46.25931 21.11811 33023 ft 504 kts 114°
2026-05-05 11:17 46.23101 21.21096 33020 ft 504 kts 113°
2026-05-05 11:17 46.20360 21.30338 33020 ft 503 kts 112°
2026-05-05 11:18 46.17601 21.39638 33020 ft 503 kts 112°
2026-05-05 11:18 46.14829 21.48912 33019 ft 503 kts 112°
2026-05-05 11:19 46.12042 21.58182 33021 ft 503 kts 112°
2026-05-05 11:19 46.09247 21.67444 33020 ft 504 kts 112°
2026-05-05 11:20 46.06440 21.76716 33018 ft 504 kts 112°
2026-05-05 11:20 46.03630 21.85963 33018 ft 504 kts 112°
2026-05-05 11:21 46.00805 21.95222 33018 ft 504 kts 112°
2026-05-05 11:21 45.97999 22.04386 33021 ft 504 kts 112°
2026-05-05 11:22 45.95162 22.13620 33020 ft 504 kts 112°
2026-05-05 11:22 45.92321 22.22834 33020 ft 504 kts 112°
2026-05-05 11:23 45.89466 22.32053 33023 ft 505 kts 112°
2026-05-05 11:23 45.86608 22.41254 33023 ft 505 kts 112°
2026-05-05 11:24 45.83740 22.50455 33021 ft 505 kts 112°
2026-05-05 11:24 45.80865 22.59644 33029 ft 505 kts 112°
2026-05-05 11:25 45.77987 22.68808 33021 ft 504 kts 112°
2026-05-05 11:25 45.75099 22.77971 33023 ft 504 kts 112°
2026-05-05 11:26 45.72228 22.87048 33020 ft 504 kts 112°
2026-05-05 11:26 45.69325 22.96194 33036 ft 503 kts 112°
2026-05-05 11:27 45.66425 23.05298 33036 ft 503 kts 112°
2026-05-05 11:27 45.63522 23.14380 33041 ft 503 kts 112°
2026-05-05 11:28 45.60612 23.23454 33045 ft 503 kts 112°
2026-05-05 11:28 45.57681 23.32558 33040 ft 502 kts 112°
2026-05-05 11:29 45.54754 23.41617 33045 ft 503 kts 112°
2026-05-05 11:29 45.51841 23.50606 33043 ft 503 kts 112°
2026-05-05 11:30 45.48893 23.59666 33063 ft 503 kts 112°
2026-05-05 11:30 45.45944 23.68703 33051 ft 503 kts 112°
2026-05-05 11:31 45.42975 23.77766 33051 ft 503 kts 112°
2026-05-05 11:31 45.40004 23.86807 33067 ft 504 kts 112°
2026-05-05 11:32 45.37030 23.95821 33051 ft 503 kts 112°
2026-05-05 11:32 45.34069 24.04771 33044 ft 502 kts 112°
2026-05-05 11:33 45.31092 24.13738 33048 ft 502 kts 112°
2026-05-05 11:33 45.28096 24.22728 33037 ft 503 kts 112°
2026-05-05 11:34 45.25098 24.31694 33034 ft 502 kts 112°
2026-05-05 11:34 45.22094 24.40651 33028 ft 502 kts 112°
2026-05-05 11:35 45.19101 24.49541 33030 ft 502 kts 112°
2026-05-05 11:35 45.16087 24.58467 33035 ft 502 kts 112°
2026-05-05 11:36 45.13071 24.67368 33023 ft 502 kts 112°
2026-05-05 11:36 45.10041 24.76279 33023 ft 502 kts 112°
2026-05-05 11:37 45.07006 24.85174 33026 ft 502 kts 113°
2026-05-05 11:37 45.03966 24.94059 33028 ft 501 kts 113°
2026-05-05 11:38 45.00914 25.02945 33020 ft 501 kts 113°
2026-05-05 11:38 44.97866 25.11790 33029 ft 501 kts 113°
2026-05-05 11:39 44.94820 25.20600 33028 ft 501 kts 113°
2026-05-05 11:39 44.91754 25.29439 33026 ft 500 kts 113°
2026-05-05 11:40 44.88687 25.38254 33030 ft 501 kts 113°
2026-05-05 11:40 44.85616 25.47051 33028 ft 501 kts 113°
2026-05-05 11:41 44.82528 25.55866 33041 ft 501 kts 114°
2026-05-05 11:41 44.79435 25.64669 33022 ft 501 kts 114°
2026-05-05 11:42 44.76338 25.73453 33029 ft 501 kts 114°
2026-05-05 11:42 44.73273 25.82119 33053 ft 501 kts 114°
2026-05-05 11:43 44.70150 25.90917 33043 ft 499 kts 114°
2026-05-05 11:43 44.67038 25.99657 33044 ft 499 kts 114°
2026-05-05 11:44 44.64450 26.06907 33046 ft 499 kts 114°
2026-05-05 11:44 44.61332 26.15616 33066 ft 499 kts 114°
2026-05-05 11:45 44.58209 26.24310 33046 ft 497 kts 114°
2026-05-05 11:45 44.55087 26.32972 33031 ft 497 kts 114°
2026-05-05 11:46 44.51960 26.41622 33035 ft 497 kts 114°
2026-05-05 11:46 44.48832 26.50248 33039 ft 497 kts 114°
2026-05-05 11:47 44.45720 26.58803 33037 ft 496 kts 114°
2026-05-05 11:47 44.42585 26.67393 33040 ft 496 kts 114°
2026-05-05 11:48 44.37865 26.80275 33040 ft 496 kts 115°
2026-05-05 11:48 44.34705 26.88868 33039 ft 496 kts 115°
2026-05-05 11:49 44.31544 26.97437 33040 ft 496 kts 115°
2026-05-05 11:49 44.28397 27.05939 33045 ft 496 kts 115°
2026-05-05 11:50 44.25229 27.14473 33043 ft 494 kts 115°
2026-05-05 11:50 44.22056 27.22990 33048 ft 495 kts 115°
2026-05-05 11:51 44.18874 27.31511 33048 ft 496 kts 115°
2026-05-05 11:51 44.15683 27.40033 33051 ft 495 kts 116°
2026-05-05 11:52 44.12520 27.48449 33044 ft 492 kts 116°
2026-05-05 11:52 44.09336 27.56893 33045 ft 491 kts 116°
2026-05-05 11:53 44.06155 27.65307 33044 ft 492 kts 116°
2026-05-05 11:53 44.02982 27.73675 33045 ft 490 kts 116°
2026-05-05 11:54 43.99800 27.82041 33047 ft 489 kts 116°
2026-05-05 11:54 43.96614 27.90393 33048 ft 489 kts 117°
2026-05-05 11:55 43.93421 27.98738 33056 ft 489 kts 117°
2026-05-05 11:55 43.90226 28.07067 33059 ft 488 kts 117°
2026-05-05 11:56 43.87049 28.15320 33064 ft 488 kts 117°
2026-05-05 11:56 43.83845 28.23618 33062 ft 488 kts 117°
2026-05-05 11:57 43.80639 28.31898 33067 ft 487 kts 117°
2026-05-05 11:57 43.77431 28.40160 33075 ft 487 kts 117°
2026-05-05 11:58 43.74300 28.48204 33075 ft 487 kts 117°
2026-05-05 11:58 43.70974 28.56283 33542 ft 483 kts 121°
2026-05-05 11:59 43.69127 28.60235 33805 ft 483 kts 122°
2026-05-05 11:59 43.67299 28.64043 33977 ft 483 kts 122°
2026-05-05 11:59 43.65441 28.67913 34186 ft 482 kts 122°
2026-05-05 11:59 43.63580 28.71830 34349 ft 482 kts 122°
2026-05-05 12:00 43.61803 28.75612 34495 ft 482 kts 121°
2026-05-05 12:00 43.59967 28.79546 34642 ft 482 kts 121°
2026-05-05 12:00 43.58156 28.83443 34817 ft 482 kts 121°
2026-05-05 12:00 43.56349 28.87338 34906 ft 483 kts 121°
2026-05-05 12:01 43.54539 28.91238 35029 ft 483 kts 121°
2026-05-05 12:01 43.52727 28.95135 35089 ft 485 kts 121°
2026-05-05 12:01 43.49059 29.03002 35085 ft 490 kts 121°
2026-05-05 12:02 43.45367 29.10890 35092 ft 489 kts 121°
2026-05-05 12:02 43.41669 29.18769 35084 ft 489 kts 121°
2026-05-05 12:03 43.37995 29.26578 35086 ft 489 kts 121°
2026-05-05 12:03 43.34297 29.34416 35084 ft 489 kts 121°
2026-05-05 12:04 43.30588 29.42257 35073 ft 490 kts 121°
2026-05-05 12:04 43.26863 29.50113 35071 ft 490 kts 121°
2026-05-05 12:05 43.23135 29.57951 35090 ft 490 kts 121°
2026-05-05 12:05 43.19406 29.65773 35085 ft 490 kts 121°
2026-05-05 12:06 43.15663 29.73602 35061 ft 491 kts 121°
2026-05-05 12:06 43.11916 29.81419 35062 ft 491 kts 121°
2026-05-05 12:07 43.08185 29.89182 35084 ft 490 kts 122°
2026-05-05 12:07 43.04431 29.96973 35068 ft 491 kts 121°
2026-05-05 12:08 43.00654 30.04790 35067 ft 492 kts 121°
2026-05-05 12:08 42.96875 30.12591 35063 ft 492 kts 121°
2026-05-05 12:09 42.93100 30.20364 35068 ft 492 kts 121°
2026-05-05 12:09 42.89306 30.28156 35060 ft 493 kts 121°
2026-05-05 12:10 42.85525 30.35900 35065 ft 494 kts 121°
2026-05-05 12:10 42.81713 30.43687 35066 ft 494 kts 121°
2026-05-05 12:11 42.77883 30.51490 35058 ft 495 kts 121°
2026-05-05 12:11 42.74547 30.59617 35058 ft 490 kts 108°
2026-05-05 12:12 42.72946 30.68553 35050 ft 485 kts 96°
2026-05-05 12:12 42.71993 30.77640 35058 ft 485 kts 95°
2026-05-05 12:13 42.71120 30.86673 35045 ft 485 kts 95°
2026-05-05 12:13 42.70214 30.95750 35042 ft 485 kts 95°
2026-05-05 12:14 42.69277 31.04843 35043 ft 485 kts 95°
2026-05-05 12:14 42.68325 31.13926 35043 ft 484 kts 95°
2026-05-05 12:15 42.67368 31.22987 35039 ft 484 kts 95°
2026-05-05 12:15 42.66405 31.32048 35037 ft 484 kts 95°
2026-05-05 12:16 42.65442 31.41050 35035 ft 484 kts 95°
2026-05-05 12:16 42.64470 31.50051 35038 ft 482 kts 95°
2026-05-05 12:17 42.63490 31.59070 35032 ft 482 kts 95°
2026-05-05 12:17 42.62504 31.68080 35031 ft 482 kts 95°
2026-05-05 12:18 42.61509 31.77103 35027 ft 482 kts 95°
2026-05-05 12:18 42.60508 31.86112 35032 ft 483 kts 95°
2026-05-05 12:19 42.59503 31.95091 35026 ft 483 kts 95°
2026-05-05 12:19 42.58487 32.04110 35026 ft 483 kts 95°
2026-05-05 12:20 42.57489 32.13113 35023 ft 483 kts 95°
2026-05-05 12:20 42.56459 32.22090 35034 ft 483 kts 95°
2026-05-05 12:21 42.55417 32.31078 35018 ft 482 kts 95°
2026-05-05 12:21 42.54372 32.40064 35023 ft 482 kts 95°
2026-05-05 12:22 42.53325 32.49022 35022 ft 480 kts 95°
2026-05-05 12:22 42.52272 32.57968 35026 ft 479 kts 95°
2026-05-05 12:23 42.51217 32.66877 35023 ft 479 kts 95°
2026-05-05 12:23 42.50159 32.75756 35023 ft 479 kts 95°
2026-05-05 12:24 42.49089 32.84659 35024 ft 480 kts 95°
2026-05-05 12:24 42.48011 32.93576 35022 ft 480 kts 95°
2026-05-05 12:25 42.46923 33.02511 35027 ft 480 kts 96°
2026-05-05 12:25 42.45831 33.11426 35028 ft 480 kts 96°
2026-05-05 12:26 42.44732 33.20333 35033 ft 480 kts 96°
2026-05-05 12:26 42.43630 33.29192 35042 ft 480 kts 96°
2026-05-05 12:27 42.42510 33.38139 35028 ft 483 kts 96°
2026-05-05 12:27 42.41387 33.47093 35030 ft 482 kts 96°
2026-05-05 12:28 42.40252 33.56030 35031 ft 480 kts 96°
2026-05-05 12:28 42.39114 33.64925 35046 ft 480 kts 97°
2026-05-05 12:29 42.37969 33.73845 35030 ft 481 kts 97°
2026-05-05 12:29 42.36825 33.82701 35030 ft 482 kts 97°
2026-05-05 12:30 42.35664 33.91644 35025 ft 482 kts 97°
2026-05-05 12:30 42.34506 34.00558 35045 ft 482 kts 97°
2026-05-05 12:31 42.33530 34.07995 35041 ft 484 kts 97°
2026-05-05 12:31 42.32344 34.16970 35026 ft 485 kts 97°
2026-05-05 12:32 42.31155 34.25929 35025 ft 485 kts 97°
2026-05-05 12:32 42.29958 34.34892 35040 ft 485 kts 98°
2026-05-05 12:33 42.28754 34.43890 35025 ft 487 kts 98°
2026-05-05 12:33 42.27536 34.52901 35026 ft 487 kts 98°
2026-05-05 12:34 42.26308 34.61885 35023 ft 486 kts 98°
2026-05-05 12:34 42.25075 34.70874 35034 ft 486 kts 99°
2026-05-05 12:35 42.23842 34.79817 35023 ft 488 kts 99°
2026-05-05 12:35 42.22593 34.88824 35023 ft 489 kts 99°
2026-05-05 12:36 42.21329 34.97846 35023 ft 489 kts 99°
2026-05-05 12:36 42.20059 35.06864 35031 ft 489 kts 99°
2026-05-05 12:37 42.18792 35.15808 35023 ft 490 kts 99°
2026-05-05 12:37 42.17506 35.24838 35023 ft 490 kts 99°
2026-05-05 12:38 42.16215 35.33851 35023 ft 490 kts 99°
2026-05-05 12:38 42.14915 35.42881 35024 ft 490 kts 99°
2026-05-05 12:39 42.13616 35.51902 35022 ft 490 kts 100°
2026-05-05 12:39 42.12301 35.60923 35019 ft 490 kts 100°
2026-05-05 12:40 42.10990 35.69876 35029 ft 490 kts 100°
2026-05-05 12:40 42.09665 35.78883 35029 ft 490 kts 100°
2026-05-05 12:41 42.08331 35.87903 35026 ft 491 kts 101°
2026-05-05 12:41 42.06991 35.96910 35024 ft 491 kts 101°
2026-05-05 12:42 42.05640 36.05937 35027 ft 491 kts 101°
2026-05-05 12:42 42.04285 36.14947 35023 ft 491 kts 101°
2026-05-05 12:43 42.02932 36.23889 35020 ft 491 kts 101°
2026-05-05 12:43 42.01561 36.32894 35020 ft 491 kts 101°
2026-05-05 12:44 42.00185 36.41894 35018 ft 491 kts 101°
2026-05-05 12:44 41.98802 36.50885 35021 ft 491 kts 101°
2026-05-05 12:45 41.97413 36.59865 35017 ft 490 kts 101°
2026-05-05 12:45 41.96026 36.68783 35018 ft 490 kts 102°
2026-05-05 12:46 41.94629 36.77711 35018 ft 490 kts 102°
2026-05-05 12:46 41.93223 36.86659 35016 ft 490 kts 102°
2026-05-05 12:47 41.91808 36.95609 35014 ft 490 kts 102°